GW1943 Weather Reports


time (UTC)temp
F
wind
direction
speed
knots
gust
knots
rain 1hr
in
rain 24hr
in
rain mn
in
humidity
%
barometer
mb
20260906133202 51 188 0.0 0.0 0.00 0.00 0.00 99 1017.2
20260906132657 51 188 0.0 0.0 0.00 0.00 0.00 98 1017.2
20260906132153 51 188 0.0 0.0 0.00 0.00 0.00 98 1017.3
20260906131648 51 188 0.0 0.0 0.00 0.00 0.00 98 1017.2
20260906131143 51 188 0.0 0.0 0.00 0.00 0.00 98 1017.2
20260906130638 51 188 0.0 0.0 0.00 0.00 0.00 98 1017.3
20260906130133 51 188 0.0 0.0 0.00 0.00 0.00 98 1017.2
20260906125631 51 188 0.0 0.0 0.00 0.00 0.00 98 1017.5
20260906125130 51 188 0.0 0.0 0.00 0.00 0.00 98 1017.4
20260906124626 51 188 0.0 0.0 0.00 0.00 0.00 98 1017.4
20260906124121 51 188 0.0 0.0 0.00 0.00 0.00 97 1017.2
20260906123620 51 188 0.0 0.0 0.00 0.00 0.00 97 1017.2
20260906123115 51 188 0.0 0.0 0.00 0.00 0.00 97 1017.4
20260906122614 52 188 0.0 0.0 0.00 0.00 0.00 97 1017.2
20260906122110 52 188 0.0 0.0 0.00 0.00 0.00 97 1017.3
20260906121606 52 188 0.0 0.0 0.00 0.00 0.00 97 1017.2
20260906121102 52 188 0.0 0.0 0.00 0.00 0.00 97 1017.2
20260906120557 52 188 0.0 0.0 0.00 0.00 0.00 97 1017.4
20260906120055 52 188 0.0 0.0 0.00 0.00 0.00 97 1017.2
20260906115555 52 187 0.0 0.0 0.00 0.00 0.00 97 1017.4
20260906115050 52 191 0.0 0.0 0.00 0.00 0.00 98 1017.6
20260906114550 52 192 0.0 0.0 0.00 0.00 0.00 98 1017.6
20260906114045 52 192 0.0 0.0 0.00 0.00 0.00 98 1017.5
20260906113544 52 192 0.0 0.0 0.00 0.00 0.00 98 1017.6
20260906113039 52 192 0.0 0.0 0.00 0.00 0.00 98 1017.4
20260906112534 52 192 0.0 0.0 0.00 0.00 0.00 98 1017.7
20260906112031 52 192 0.0 0.0 0.00 0.00 0.00 97 1017.6
20260906111530 53 192 0.0 0.0 0.00 0.00 0.00 97 1017.5
20260906111025 53 192 0.0 0.0 0.00 0.00 0.00 97 1017.4
20260906110520 53 192 0.0 0.0 0.00 0.00 0.00 97 1017.6
20260906110019 53 192 0.0 0.0 0.00 0.00 0.00 97 1017.5
20260906105514 53 192 0.0 0.0 0.00 0.00 0.00 97 1017.4
20260906105010 53 192 0.0 0.0 0.00 0.00 0.00 97 1017.5
20260906104508 53 192 0.0 0.0 0.00 0.00 0.00 97 1017.6
20260906104003 53 192 0.0 0.0 0.00 0.00 0.00 97 1017.6
20260906103501 54 192 0.0 0.0 0.00 0.00 0.00 97 1017.4
20260906102956 54 192 0.0 0.0 0.00 0.00 0.00 97 1017.3
20260906102456 54 193 0.0 0.0 0.00 0.00 0.00 97 1017.4
20260906101951 54 193 0.0 0.0 0.00 0.00 0.00 97 1017.5
20260906101446 54 193 0.0 0.0 0.00 0.00 0.00 97 1017.5
20260906100941 54 193 0.0 0.0 0.00 0.00 0.00 97 1017.5
20260906100436 54 193 0.0 0.0 0.00 0.00 0.00 97 1017.5
20260906095930 54 194 0.0 0.0 0.00 0.00 0.00 97 1017.4
20260906095426 54 194 0.0 0.0 0.00 0.00 0.00 97 1017.3
20260906094920 53 194 0.0 0.0 0.00 0.00 0.00 97 1017.6
20260906094415 53 194 0.0 0.0 0.00 0.00 0.00 97 1017.2
20260906093911 54 194 0.0 0.0 0.00 0.00 0.00 97 1017.5
20260906093407 54 194 0.0 0.0 0.00 0.00 0.00 96 1017.5
20260906092901 54 194 0.0 0.0 0.00 0.00 0.00 96 1017.5
20260906092401 54 193 0.0 0.0 0.00 0.00 0.00 96 1017.3
20260906091856 53 203 0.0 0.0 0.00 0.00 0.00 96 1017.5
20260906091352 53 203 0.0 0.0 0.00 0.00 0.00 96 1017.5
20260906090849 53 203 0.0 0.0 0.00 0.00 0.00 96 1017.5
20260906090348 53 203 0.0 0.0 0.00 0.00 0.00 95 1017.0
20260906085842 53 203 0.0 0.0 0.00 0.00 0.00 95 1017.5
20260906085342 53 203 0.0 0.0 0.00 0.00 0.00 95 1017.4
20260906084837 54 203 0.0 0.0 0.00 0.00 0.00 94 1017.3
20260906084337 54 203 0.0 0.0 0.00 0.00 0.00 94 1017.7
20260906083831 54 203 0.0 0.0 0.00 0.00 0.00 94 1017.6
20260906083326 54 203 0.0 0.0 0.00 0.00 0.00 94 1017.6
20260906082820 54 203 0.0 0.0 0.00 0.00 0.00 94 1017.5
20260906082316 54 203 0.0 0.0 0.00 0.00 0.00 94 1017.5
20260906081811 54 203 0.0 0.0 0.00 0.00 0.00 93 1017.5
20260906081307 55 203 0.0 0.0 0.00 0.00 0.00 93 1017.6
20260906080803 55 203 0.0 0.0 0.00 0.00 0.00 93 1017.6
20260906080259 55 203 0.0 0.0 0.00 0.00 0.00 92 1017.6
20260906075759 55 203 0.0 0.0 0.00 0.00 0.00 92 1017.5
20260906075253 55 203 0.0 0.0 0.00 0.00 0.00 91 1017.5
20260906074749 55 203 0.0 0.0 0.00 0.00 0.00 91 1017.6
20260906074248 54 210 0.0 0.0 0.00 0.00 0.00 92 1017.6
20260906073747 54 210 0.0 0.0 0.00 0.00 0.00 92 1017.7
20260906073242 54 210 0.0 0.0 0.00 0.00 0.00 92 1017.6
20260906072738 54 210 0.0 0.0 0.00 0.00 0.00 92 1017.8
20260906072234 54 210 0.0 0.0 0.00 0.00 0.00 92 1017.5
20260906071729 55 210 0.0 0.0 0.00 0.00 0.00 91 1017.8
20260906071229 55 210 0.0 0.0 0.00 0.00 0.00 91 1017.5
20260906070726 55 210 0.0 0.0 0.00 0.00 0.00 90 1017.7
20260906070221 55 210 0.0 0.0 0.00 0.00 0.00 90 1017.7
20260906065721 55 210 0.0 0.0 0.00 0.00 0.00 90 1017.9
20260906065216 55 210 0.0 0.0 0.00 0.00 0.00 89 1018.0
20260906064712 56 210 0.0 0.0 0.00 0.00 0.00 88 1017.7
20260906064207 56 210 0.0 0.0 0.00 0.00 0.00 88 1017.8
20260906063702 56 210 0.0 0.0 0.00 0.00 0.00 88 1017.8
20260906063158 56 210 0.0 0.0 0.00 0.00 0.00 87 1018.0
20260906062653 56 211 0.0 0.0 0.00 0.00 0.00 87 1017.6
20260906062152 56 216 0.0 0.0 0.00 0.00 0.00 87 1017.8
20260906061648 56 217 0.0 0.0 0.00 0.00 0.00 87 1017.7
20260906061143 57 217 0.0 0.0 0.00 0.00 0.00 86 1017.8
20260906060639 57 218 0.0 0.0 0.00 0.00 0.00 86 1017.9
20260906060136 57 218 0.0 0.0 0.00 0.00 0.00 86 1017.9
20260906055632 57 218 0.0 0.0 0.00 0.00 0.00 86 1018.0
20260906055127 57 218 0.0 0.0 0.00 0.00 0.00 87 1017.9
20260906054622 57 218 0.0 0.0 0.00 0.00 0.00 86 1018.1
20260906054117 57 218 0.0 0.0 0.00 0.00 0.00 85 1018.0
20260906053614 58 218 0.0 0.0 0.00 0.00 0.00 85 1017.9
20260906053108 58 219 0.0 0.0 0.00 0.00 0.00 85 1017.9
20260906052604 58 219 0.0 0.0 0.00 0.00 0.00 84 1017.8
20260906052101 58 219 0.0 0.0 0.00 0.00 0.00 84 1018.0
20260906051556 58 219 0.0 0.0 0.00 0.00 0.00 84 1018.0
20260906051051 58 219 0.0 0.0 0.00 0.00 0.00 84 1018.0
20260906050546 58 219 0.0 0.0 0.00 0.00 0.00 84 1018.1
20260906050042 58 219 0.0 0.0 0.00 0.00 0.00 84 1018.0
20260906045539 58 219 0.0 0.0 0.00 0.00 0.00 84 1017.9
20260906045036 58 219 0.0 0.0 0.00 0.00 0.00 84 1018.0
20260906044531 58 219 0.0 0.0 0.00 0.00 0.00 84 1018.1
20260906044026 59 219 0.0 0.0 0.00 0.00 0.00 84 1018.3
20260906043522 59 219 0.0 0.0 0.00 0.00 0.00 83 1018.2
20260906043018 59 219 0.0 0.0 0.00 0.00 0.00 82 1018.2
20260906042517 59 219 0.0 0.0 0.00 0.00 0.00 82 1018.2
20260906042011 60 219 0.0 0.0 0.00 0.00 0.00 81 1017.9
20260906041508 60 219 0.0 0.0 0.00 0.00 0.00 80 1018.2
20260906041007 60 219 0.0 0.0 0.00 0.00 0.00 80 1018.2
20260906040502 60 219 0.0 0.0 0.00 0.00 0.00 79 1018.4
20260906035957 60 219 0.0 0.0 0.00 0.00 0.00 79 1018.4
20260906035453 61 220 0.0 0.0 0.00 0.00 0.00 79 1018.3
20260906034948 61 220 0.0 0.0 0.00 0.00 0.00 79 1018.3
20260906034443 61 220 0.0 0.0 0.00 0.00 0.00 79 1018.4
20260906033939 61 220 0.0 0.0 0.00 0.00 0.00 79 1018.4
20260906033438 61 220 0.0 0.0 0.00 0.00 0.00 78 1018.1
20260906032935 62 220 0.0 0.0 0.00 0.00 0.00 77 1018.2
20260906032431 62 220 0.0 0.0 0.00 0.00 0.00 76 1018.2
20260906031924 62 220 0.0 0.0 0.00 0.00 0.00 75 1018.3
20260906031420 63 220 0.0 0.0 0.00 0.00 0.00 76 1018.0
20260906030915 63 220 0.0 0.0 0.00 0.00 0.00 75 1018.1
20260906030410 64 220 0.0 0.0 0.00 0.00 0.00 73 1017.9
20260906025904 64 220 0.0 0.0 0.00 0.00 0.00 72 1017.8
20260906025359 64 220 0.0 0.0 0.00 0.00 0.00 72 1017.9
20260906024857 64 220 0.0 0.0 0.00 0.00 0.00 71 1018.1
20260906024357 64 220 0.0 0.0 0.00 0.00 0.00 70 1018.1
20260906023852 64 220 0.0 0.0 0.00 0.00 0.00 69 1017.8
20260906023348 65 220 0.0 0.0 0.00 0.00 0.00 68 1018.0
20260906022843 65 220 0.0 0.0 0.00 0.00 0.00 68 1017.9
20260906022338 66 220 0.0 0.0 0.00 0.00 0.00 66 1017.8
20260906021834 66 220 0.0 0.0 0.00 0.00 0.00 65 1018.0
20260906021333 66 220 0.0 0.0 0.00 0.00 0.00 64 1017.9
20260906020828 67 221 0.0 0.0 0.00 0.00 0.00 64 1018.0
20260906020327 68 221 0.0 0.0 0.00 0.00 0.00 63 1017.9
20260906015822 68 221 0.0 0.0 0.00 0.00 0.00 61 1017.9
20260906015320 69 223 0.0 0.0 0.00 0.00 0.00 59 1017.9
20260906014815 69 223 0.0 0.0 0.00 0.00 0.00 59 1017.9
20260906014310 70 229 0.0 0.0 0.00 0.00 0.00 57 1017.8
20260906013806 71 223 0.0 0.9 0.00 0.00 0.00 57 1017.8
20260906013301 72 216 0.0 0.0 0.00 0.00 0.00 55 1017.8
20260906012757 72 225 0.0 0.0 0.00 0.00 0.00 53 1017.4
20260906012251 73 223 0.0 0.9 0.00 0.00 0.00 55 1017.7
20260906011747 73 94 0.9 1.7 0.00 0.00 0.00 52 1017.6
20260906011246 73 220 0.9 0.9 0.00 0.00 0.00 52 1017.7
20260906010742 73 227 0.0 0.9 0.00 0.00 0.00 53 1017.6
20260906010238 73 224 0.0 0.9 0.00 0.00 0.00 51 1017.7
20260906005733 73 45 0.0 0.9 0.00 0.00 0.00 51 1017.7
20260906005232 73 231 0.0 0.9 0.00 0.00 0.00 52 1017.8
20260906004731 72 291 1.7 1.7 0.00 0.00 0.00 54 1017.8
20260906004221 71 224 0.0 1.7 0.00 0.00 0.00 57 1017.7
20260906003716 72 226 0.0 1.7 0.00 0.00 0.00 55 1017.8
20260906003212 71 236 0.0 0.0 0.00 0.00 0.00 58 1017.7
20260906002712 71 232 0.9 1.7 0.00 0.00 0.00 56 1017.6
20260906002207 71 241 0.0 0.0 0.00 0.00 0.00 55 1017.6
20260906001702 71 228 0.0 0.9 0.00 0.00 0.00 55 1017.7
20260906001201 70 224 0.0 0.9 0.00 0.00 0.00 55 1017.5
20260906000657 72 238 0.0 2.6 0.00 0.00 0.00 54 1017.4
20260906000152 73 263 1.7 2.6 0.00 0.00 0.00 51 1017.5
20260905235651 74 232 1.7 2.6 0.00 0.00 0.00 51 1017.6
20260905235146 74 240 0.9 2.6 0.00 0.00 0.00 55 1017.6
20260905234641 74 239 0.9 2.6 0.00 0.00 0.00 53 1017.5
20260905234137 75 221 0.0 0.9 0.00 0.00 0.00 47 1017.7
20260905233632 74 235 0.0 0.0 0.00 0.00 0.00 52 1017.7
20260905233126 74 234 0.9 0.9 0.00 0.00 0.00 51 1017.6
20260905232622 75 228 0.0 0.9 0.00 0.00 0.00 52 1017.7
20260905232117 74 224 0.9 1.7 0.00 0.00 0.00 49 1017.8
20260905231617 76 252 0.9 1.7 0.00 0.00 0.00 50 1017.8
20260905231114 77 234 0.0 0.9 0.00 0.00 0.00 49 1017.8
20260905230609 76 248 0.0 0.9 0.00 0.00 0.00 50 1017.9
20260905230106 76 228 0.0 0.9 0.00 0.00 0.00 53 1018.0
20260905225601 74 203 0.0 0.9 0.00 0.00 0.00 55 1017.9
20260905225056 74 225 0.0 0.9 0.00 0.00 0.00 55 1018.2
20260905224555 73 220 0.0 0.9 0.00 0.00 0.00 54 1018.0
20260905224055 73 227 0.0 1.7 0.00 0.00 0.00 56 1018.0
20260905223553 73 231 0.9 1.7 0.00 0.00 0.00 56 1018.2
20260905223049 73 230 0.0 0.0 0.00 0.00 0.00 56 1018.0
20260905222548 71 253 1.7 1.7 0.00 0.00 0.00 58 1018.3
20260905222044 70 233 0.0 0.9 0.00 0.00 0.00 61 1018.3
20260905221540 70 225 0.9 1.7 0.00 0.00 0.00 62 1018.3
20260905221036 68 225 0.0 1.7 0.00 0.00 0.00 66 1018.2
20260905220531 67 232 0.9 2.6 0.00 0.00 0.00 64 1018.5
20260905220028 67 236 0.9 2.6 0.00 0.00 0.00 65 1018.6
20260905215526 66 235 0.0 2.6 0.00 0.00 0.00 67 1018.5
20260905215023 66 227 0.0 1.7 0.00 0.00 0.00 68 1018.6
20260905214519 66 236 0.9 1.7 0.00 0.00 0.00 65 1018.7
20260905214014 66 231 0.0 1.7 0.00 0.00 0.00 67 1018.9
20260905213509 66 229 0.0 1.7 0.00 0.00 0.00 66 1018.6
20260905213004 66 244 0.9 1.7 0.00 0.00 0.00 66 1018.7
20260905212459 66 229 0.9 1.7 0.00 0.00 0.00 65 1018.7
20260905211958 66 229 0.0 0.0 0.00 0.00 0.00 66 1018.6
20260905211454 66 229 0.0 0.0 0.00 0.00 0.00 68 1018.7
20260905210950 66 232 0.0 0.0 0.00 0.00 0.00 70 1018.8
20260905210445 66 232 0.0 0.9 0.00 0.00 0.00 68 1018.6
20260905205944 65 232 0.0 1.7 0.00 0.00 0.00 69 1018.6
20260905205439 65 225 0.0 1.7 0.00 0.00 0.00 69 1018.7
20260905204938 65 225 0.0 0.9 0.00 0.00 0.00 70 1018.7
20260905204434 65 226 0.0 0.0 0.00 0.00 0.00 71 1018.9
20260905203933 65 228 0.0 0.0 0.00 0.00 0.00 71 1018.9
20260905203429 64 228 0.0 0.0 0.00 0.00 0.00 70 1019.0
20260905202924 64 226 0.0 0.0 0.00 0.00 0.00 71 1018.9
20260905202419 64 226 0.0 0.9 0.00 0.00 0.00 71 1019.0
20260905201915 64 226 0.0 0.0 0.00 0.00 0.00 73 1019.0
20260905201410 64 226 0.0 2.6 0.00 0.00 0.00 73 1019.1
20260905200910 64 229 0.0 2.6 0.00 0.00 0.00 73 1018.9
20260905200406 64 228 0.0 0.0 0.00 0.00 0.00 74 1019.0
20260905195903 63 225 0.0 0.9 0.00 0.00 0.00 74 1019.0
20260905195359 63 249 1.7 1.7 0.00 0.00 0.00 72 1019.0
20260905194854 64 245 1.7 2.6 0.00 0.00 0.00 72 1019.3
20260905194353 65 268 3.5 4.3 0.00 0.00 0.00 71 1018.9
20260905193848 65 231 0.9 4.3 0.00 0.00 0.00 71 1018.8
20260905193342 65 224 0.9 1.7 0.00 0.00 0.00 73 1019.1
20260905192838 64 224 0.9 0.9 0.00 0.00 0.00 73 1019.1
20260905192334 64 235 1.7 2.6 0.00 0.00 0.00 73 1019.4
20260905191833 64 228 0.9 1.7 0.00 0.00 0.00 74 1019.2
20260905191332 64 221 2.6 2.6 0.00 0.00 0.00 74 1019.1
20260905190830 64 244 2.6 4.3 0.00 0.00 0.00 74 1019.1
20260905190325 63 216 1.7 2.6 0.00 0.00 0.00 74 1019.2
20260905185824 63 247 1.7 2.6 0.00 0.00 0.00 76 1019.4
20260905185319 63 250 1.7 2.6 0.00 0.00 0.00 75 1019.2
20260905184818 63 274 2.6 2.6 0.00 0.00 0.00 75 1019.4
20260905184317 63 242 1.7 2.6 0.00 0.00 0.00 74 1019.3
20260905183816 63 214 0.0 1.7 0.00 0.00 0.00 75 1019.4
20260905183312 64 228 0.9 2.6 0.00 0.00 0.00 74 1019.5
20260905182806 64 206 0.0 2.6 0.00 0.00 0.00 75 1019.5
20260905182306 64 205 0.9 1.7 0.00 0.00 0.00 73 1019.5
20260905181801 63 204 0.9 1.7 0.00 0.00 0.00 74 1019.4
20260905181301 62 204 0.9 1.7 0.00 0.00 0.00 78 1019.5
20260905180754 62 204 0.9 0.9 0.00 0.00 0.00 77 1019.7
20260905180250 62 204 0.0 0.9 0.00 0.00 0.00 76 1019.5
20260905175744 62 204 0.0 0.9 0.00 0.00 0.00 78 1019.8
20260905175239 61 204 0.0 1.7 0.00 0.00 0.00 77 1019.4
20260905174734 61 204 0.0 0.0 0.00 0.00 0.00 80 1019.5
20260905174230 60 204 0.0 0.0 0.00 0.00 0.00 82 1019.5
20260905173726 60 204 0.0 0.0 0.00 0.00 0.00 83 1019.7
20260905173221 59 204 0.0 1.7 0.00 0.00 0.00 82 1019.5
20260905172720 59 204 0.0 0.0 0.00 0.00 0.00 83 1019.3
20260905172215 59 204 0.0 0.0 0.00 0.00 0.00 84 1019.4
20260905171711 59 204 0.0 0.9 0.00 0.00 0.00 83 1019.3
20260905171206 59 204 0.9 2.6 0.00 0.00 0.00 84 1019.2
20260905170703 59 204 0.0 0.0 0.00 0.00 0.00 85 1019.2
20260905170158 59 204 0.0 0.0 0.00 0.00 0.00 84 1019.2
20260905165658 59 204 0.0 0.0 0.00 0.00 0.00 84 1019.2
20260905165153 59 204 0.0 0.9 0.00 0.00 0.00 84 1019.1
20260905164648 59 204 0.0 0.0 0.00 0.00 0.00 86 1019.0
20260905164147 59 204 0.0 0.0 0.00 0.00 0.00 86 1019.2
20260905163643 58 204 0.0 0.0 0.00 0.00 0.00 87 1019.1
20260905163140 58 204 0.0 0.9 0.00 0.00 0.00 87 1019.4
20260905162636 57 204 0.0 0.0 0.00 0.00 0.00 88 1019.0
20260905162134 57 204 0.0 0.0 0.00 0.00 0.00 89 1019.2
20260905161629 57 204 0.0 0.0 0.00 0.00 0.00 89 1019.4
20260905161127 57 204 0.0 0.9 0.00 0.00 0.00 89 1019.2
20260905160627 57 204 0.0 0.0 0.00 0.00 0.00 90 1019.3
20260905160121 57 204 0.0 0.9 0.00 0.00 0.00 90 1019.0
20260905155621 56 203 0.0 0.0 0.00 0.00 0.00 89 1019.2
20260905155119 56 202 0.0 0.9 0.00 0.00 0.00 90 1019.3
20260905154614 55 201 0.0 0.0 0.00 0.00 0.00 91 1019.3
20260905154110 55 201 0.0 0.0 0.00 0.00 0.00 92 1019.2
20260905153606 54 201 0.0 0.9 0.00 0.00 0.00 93 1019.1
20260905153100 54 201 0.0 0.0 0.00 0.00 0.00 95 1019.3
20260905152555 53 201 0.0 0.9 0.00 0.00 0.00 95 1019.3
20260905152050 53 200 0.0 0.0 0.00 0.00 0.00 97 1019.1
20260905151545 53 200 0.0 0.0 0.00 0.00 0.00 98 1019.2
20260905151040 53 200 0.0 0.0 0.00 0.00 0.00 99 1019.0
20260905150536 53 200 0.0 0.0 0.00 0.00 0.00 99 1018.9
20260905150033 53 200 0.0 0.0 0.00 0.00 0.00 99 1018.9
20260905145527 53 200 0.0 0.0 0.00 0.00 0.00 99 1018.9
20260905145027 52 200 0.0 0.0 0.00 0.00 0.00 99 1018.9
20260905144522 52 200 0.0 0.0 0.00 0.00 0.00 99 1018.9
20260905144021 52 200 0.0 0.0 0.00 0.00 0.00 99 1018.8
20260905143520 52 200 0.0 0.0 0.00 0.00 0.00 99 1018.6
20260905143015 52 200 0.0 0.0 0.00 0.00 0.00 99 1018.9
20260905142514 52 200 0.0 0.0 0.00 0.00 0.00 99 1018.7
20260905142010 51 200 0.0 0.0 0.00 0.00 0.00 99 1018.5
20260905141509 51 200 0.0 0.0 0.00 0.00 0.00 99 1018.6
20260905141006 51 200 0.0 0.0 0.00 0.00 0.00 99 1018.6
20260905140501 51 200 0.0 0.0 0.00 0.00 0.00 99 1018.5
20260905135959 51 200 0.0 0.0 0.00 0.00 0.00 99 1018.3
20260905135455 51 200 0.0 0.0 0.00 0.00 0.00 99 1018.6
20260905134950 51 200 0.0 0.0 0.00 0.00 0.00 99 1018.4
20260905134449 51 200 0.0 0.0 0.00 0.00 0.00 99 1018.6
20260905133949 51 200 0.0 0.0 0.00 0.00 0.00 99 1018.6